Wind_Speed
57 58 62 64 61 53 56 48 33 27 28 32 35 37 39 44 47 52 57 66 71 74 80 87 89 97 100 101 97 97 91 81 80 84 86 91 83 77 70 66 63 60 67 65 60
55 54 49 45 24 21 20 16 17 21 23 25 27 29 31 35 39 44 49 55 60 63 67 71 76 81 83 91 97 97 94 87 89 92 91 94 84 81 73 69 64 64 70 65 50
34 15 5 5 7 8 12 13 16 20 22 22 25 26 31 33 36 41 45 48 49 52 55 59 63 69 71 80 85 91 96 94 92 93 94 95 91 86 78 73 68 68 71 65 63
3 4 3 7 9 11 15 17 18 20 26 24 31 32 38 41 46 46 44 44 42 42 44 45 50 57 65 69 75 78 83 95 95 96 96 95 97 91 84 79 75 75 75 70 68
8 9 9 10 12 17 17 18 17 24 34 34 35 38 45 52 53 52 48 43 38 34 33 35 39 44 52 61 67 73 79 81 89 99 99 99 99 96 89 86 81 81 78 74 69
8 10 12 14 15 18 21 19 18 28 35 35 40 42 49 56 58 60 53 45 37 28 28 28 31 38 43 49 58 66 71 75 82 87 99 103 103 100 96 93 87 86 83 81 75
6 10 14 16 16 19 24 21 21 26 33 36 42 47 54 59 61 67 65 52 42 29 21 22 25 31 38 41 48 58 63 67 74 84 86 92 100 99 102 102 93 90 87 77 81
8 9 13 15 17 18 21 26 29 26 30 38 42 48 55 61 66 69 73 64 47 32 26 26 25 24 31 38 43 49 56 62 67 74 85 83 78 94 107 103 98 94 92 84 83
6 8 13 17 20 20 23 26 30 27 27 37 41 49 53 58 65 70 71 74 61 42 31 29 27 26 26 31 38 42 50 55 61 66 75 80 78 83 89 100 99 98 96 91 90
6 13 15 17 19 23 23 26 28 29 27 36 37 47 51 57 63 69 74 74 71 54 38 34 28 25 22 27 33 40 43 50 58 64 67 72 75 82 86 83 89 98 101 93 90
8 13 16 19 20 21 24 25 28 28 31 33 37 46 49 55 60 69 75 79 78 67 49 41 32 23 23 23 23 30 39 47 51 60 59 63 68 80 86 82 80 82 85 91 95
11 15 15 18 19 22 20 21 27 28 32 38 43 46 52 51 59 65 72 76 80 76 64 52 39 25 18 16 17 21 27 35 47 53 52 56 60 71 80 85 80 76 75 81 86
10 14 18 21 18 18 22 21 28 30 36 38 44 49 49 50 57 62 72 76 80 81 76 63 49 31 21 17 14 16 20 24 31 40 50 53 50 63 73 77 80 78 75 72 79
11 15 16 18 19 17 23 22 25 31 34 40 43 47 49 51 54 62 71 76 80 81 85 76 59 52 41 35 30 26 21 17 22 29 36 44 50 57 67 74 77 76 74 68 68
15 12 14 16 19 24 25 26 26 31 33 39 43 43 47 50 51 59 67 73 78 81 82 85 75 64 53 45 38 39 33 29 23 21 24 32 36 46 51 62 68 71 68 68 62
16 15 15 17 24 27 26 25 29 30 35 39 42 42 43 46 50 55 61 70 75 81 82 84 83 73 58 52 41 41 41 35 28 23 21 17 26 33 39 47 52 61 65 65 65
21 16 17 23 24 29 27 26 26 28 35 36 41 41 42 46 48 55 59 68 69 75 80 82 82 80 68 57 49 36 37 33 32 27 19 14 10 18 29 37 45 54 59 60 65
25 20 25 22 26 28 29 25 30 30 33 34 39 42 41 47 47 53 58 66 69 72 75 78 78 79 74 60 49 41 29 33 35 26 21 13 5 6 18 27 38 44 45 50 58
28 28 26 28 31 31 31 30 31 30 31 34 35 43 39 42 47 49 57 62 64 66 71 76 79 77 77 72 56 48 39 32 32 26 20 14 12 8 14 20 28 34 36 45 51
24 22 21 30 31 32 30 34 31 31 30 34 35 42 46 45 45 49 55 58 59 61 67 75 76 80 78 75 68 52 44 34 28 19 26 14 17 14 20 23 30 29 30 39 53
29 26 28 31 35 34 34 34 29 32 32 33 35 40 46 43 45 48 51 55 58 58 62 73 75 77 78 79 74 62 49 39 26 20 18 15 12 13 15 19 24 29 28 25 48
35 33 35 36 34 41 41 41 38 35 35 36 37 39 45 42 42 46 48 52 55 55 60 71 75 74 75 77 76 69 55 44 31 16 6 5 10 15 14 19 25 39 41 47 45
42 39 37 35 38 43 45 42 39 35 33 35 36 41 41 39 42 44 45 49 51 50 57 67 74 75 70 75 74 73 65 49 37 23 9 6 8 6 11 13 22 33 47 41 42
49 45 44 44 43 41 48 44 43 43 37 32 36 39 38 38 38 42 43 44 49 48 52 63 70 71 69 72 73 73 70 59 45 32 20 12 1 8 15 17 24 33 33 37 43
54 53 52 50 50 47 46 46 46 45 43 39 39 38 40 38 44 37 42 42 46 46 49 59 66 68 66 70 69 70 72 67 56 40 28 18 14 7 9 16 22 34 38 49 49
57 55 52 50 48 47 46 45 46 44 42 40 41 43 37 40 36 36 38 40 42 43 47 56 62 66 67 66 65 70 73 68 63 52 38 26 14 12 9 5 9 16 26 41 56
59 55 53 51 51 51 48 44 44 47 45 42 43 43 40 40 39 37 38 38 41 42 51 54 58 63 65 63 63 66 72 66 64 58 46 34 26 14 14 14 12 12 15 20 26
Wind_Direction
278 280 286 289 291 293 295 293 290 289 293 294 292 292 293 291 290 286 282 278 276 273 269 264 261 259 258 257 256 253 255 253 250 248 250 250 253 253 252 253 258 258 254 261 262
290 288 293 293 291 293 295 299 309 311 314 315 317 320 320 315 307 298 294 289 285 278 272 267 263 261 255 253 251 250 249 249 246 245 247 249 249 252 250 252 252 250 252 256 257
285 283 285 318 341 345 348 335 334 341 350 353 346 344 346 334 328 317 306 301 294 284 274 269 263 257 254 250 248 246 244 242 243 243 243 245 248 250 249 249 248 247 251 249 248
174 106 50 22 16 7 6 357 357 7 10 0 2 356 355 353 349 341 325 314 304 294 281 273 265 255 252 250 246 245 244 241 237 238 239 241 245 243 243 243 245 243 245 245 243
92 72 44 27 17 13 5 6 12 20 19 13 11 9 7 9 3 354 342 329 319 305 286 274 266 259 253 248 245 242 242 240 239 239 239 238 240 242 238 237 238 239 239 239 241
100 48 24 13 5 12 11 6 20 20 16 18 12 13 14 13 9 5 357 345 334 318 299 284 271 261 255 252 247 244 245 243 239 237 237 238 237 239 243 238 236 237 235 237 237
61 25 23 20 24 23 23 18 12 11 6 15 16 16 17 15 13 12 6 360 348 335 319 309 291 276 263 254 249 246 242 245 244 241 240 239 238 239 242 241 236 234 232 231 236
41 22 19 25 22 20 15 12 12 6 11 17 14 16 16 16 14 14 14 8 2 347 330 316 306 290 275 265 255 249 245 244 244 242 240 240 238 240 240 240 239 237 234 231 232
27 4 1 9 14 14 11 8 6 9 10 15 13 14 13 15 14 13 12 13 10 0 342 330 315 299 281 267 263 257 252 247 246 241 239 237 235 240 239 239 240 238 235 237 234
6 352 341 345 357 6 11 9 7 8 8 12 11 13 9 13 13 12 12 13 15 12 358 345 332 312 284 268 262 259 256 251 249 248 240 237 232 237 242 238 239 239 238 234 234
338 344 349 358 343 358 4 10 18 8 17 9 8 9 10 7 11 12 13 14 15 14 11 2 351 333 316 299 273 261 260 255 257 252 247 239 235 233 237 240 239 240 240 239 231
328 338 340 342 354 358 358 4 5 12 5 5 4 4 9 5 9 12 14 14 15 15 14 12 5 356 343 322 299 281 264 254 254 256 254 249 239 236 236 238 236 235 238 239 238
314 322 332 341 345 356 2 356 358 7 2 4 4 4 4 7 5 9 13 16 15 16 17 16 12 6 1 347 324 302 288 274 262 256 255 249 238 236 236 237 239 234 233 233 234
293 310 330 344 345 351 353 348 351 0 4 3 7 3 2 3 3 8 12 15 17 16 18 16 16 17 13 10 11 6 349 310 284 274 262 252 244 235 229 232 235 235 234 230 230
275 291 312 331 336 338 339 345 343 351 1 2 3 3 2 5 3 6 11 12 14 17 17 17 18 14 15 9 7 360 355 346 332 305 284 270 247 246 234 229 230 233 231 231 227
278 290 307 317 325 329 329 334 346 345 356 356 357 357 5 6 4 4 9 13 13 15 18 18 19 14 13 8 11 8 0 357 346 329 310 285 255 243 231 230 227 229 228 226 224
268 278 313 303 315 323 328 330 332 338 342 351 353 355 358 4 4 3 9 10 12 15 17 16 18 16 14 7 10 4 358 352 345 322 321 314 281 242 228 222 220 224 224 221 221
262 268 296 302 300 306 314 319 324 329 334 345 348 353 353 359 1 0 5 8 8 12 15 16 17 18 17 12 9 6 3 3 8 3 356 356 350 217 207 209 211 218 222 219 216
261 277 291 275 281 295 308 318 323 329 334 338 344 347 352 356 357 358 0 1 5 8 12 15 16 17 17 16 13 6 7 7 10 4 13 18 58 113 150 181 196 202 208 213 212
276 281 280 286 288 294 303 306 314 322 330 334 338 343 352 346 352 351 355 0 4 6 10 13 15 15 15 16 16 11 7 14 17 358 1 23 82 105 147 161 175 181 194 205 204
261 260 263 274 281 282 287 294 307 314 323 328 332 337 343 349 344 349 354 359 1 4 6 9 11 13 15 14 16 15 11 10 19 20 350 6 92 124 151 162 163 171 155 186 203
262 259 265 273 275 282 287 291 305 314 323 325 329 331 338 344 346 346 350 355 357 0 2 3 8 10 11 13 14 14 17 8 9 36 28 343 6 153 164 152 170 161 155 173 200
260 262 266 272 280 285 290 298 303 309 318 320 325 327 336 343 343 347 349 351 355 356 358 359 2 6 9 11 12 13 14 15 10 4 16 166 237 213 201 202 183 183 181 198 201
260 262 264 267 271 271 286 293 301 307 312 318 319 324 329 336 340 340 343 347 352 351 353 355 357 5 8 9 10 11 11 13 15 9 350 1 344 252 225 220 200 196 201 197 207
259 261 263 269 275 276 275 287 296 300 301 311 314 318 324 331 334 336 337 338 345 348 346 349 352 358 2 7 7 9 9 10 11 11 4 341 333 347 235 223 214 203 199 202 201
257 257 263 270 273 271 275 280 287 291 299 307 309 314 321 329 332 333 335 334 342 341 343 344 348 352 358 1 6 6 7 7 9 7 5 0 328 299 304 276 227 216 216 211 213
252 257 264 268 268 269 272 276 278 287 293 301 306 312 318 324 328 331 335 337 339 339 341 342 344 347 350 358 3 3 5 4 4 5 3 358 354 325 273 267 254 239 234 231 223
Height
10828 10828 10826 10824 10822 10818 10814 10813 10808 10805 10801 10797 10793 10788 10781 10774 10767 10761 10753 10746 10742 10736 10731 10731 10735 10737 10741 10745 10755 10764 10780 10797 10795 10790 10781 10768 10786 10799 10813 10822 10831 10835 10830 10837 10843
10821 10819 10817 10815 10813 10811 10809 10807 10803 10801 10796 10792 10787 10781 10774 10767 10758 10750 10740 10731 10722 10715 10709 10707 10706 10709 10712 10716 10726 10737 10752 10766 10765 10764 10763 10749 10774 10782 10797 10809 10816 10820 10817 10827 10833
10814 10813 10813 10812 10811 10809 10806 10804 10801 10797 10793 10788 10782 10775 10768 10758 10748 10736 10724 10713 10701 10692 10686 10682 10681 10682 10684 10690 10696 10709 10728 10737 10743 10745 10746 10742 10755 10767 10780 10794 10801 10805 10806 10817 10822
10812 10812 10811 10810 10809 10807 10804 10801 10798 10794 10790 10784 10777 10769 10760 10749 10736 10723 10709 10695 10683 10673 10667 10663 10661 10662 10664 10669 10677 10689 10698 10706 10717 10720 10727 10733 10728 10747 10763 10772 10781 10788 10792 10802 10807
10811 10811 10811 10809 10807 10804 10801 10798 10794 10791 10786 10779 10771 10763 10753 10741 10729 10714 10697 10682 10669 10659 10653 10649 10646 10646 10648 10650 10659 10668 10674 10685 10694 10700 10706 10713 10717 10718 10740 10749 10759 10768 10775 10785 10796
10810 10810 10810 10807 10804 10802 10798 10795 10792 10787 10781 10775 10768 10759 10748 10736 10723 10709 10691 10674 10660 10650 10644 10640 10638 10636 10635 10639 10645 10651 10657 10665 10671 10674 10677 10687 10696 10702 10714 10727 10739 10749 10761 10771 10784
10809 10809 10807 10805 10802 10800 10796 10793 10788 10784 10778 10771 10764 10754 10744 10731 10718 10702 10685 10669 10654 10644 10638 10633 10630 10628 10627 10628 10630 10634 10643 10648 10650 10655 10663 10669 10692 10694 10691 10697 10717 10731 10741 10757 10767
10807 10807 10806 10804 10801 10797 10793 10789 10785 10780 10774 10768 10760 10751 10739 10727 10712 10699 10686 10665 10652 10641 10634 10628 10624 10620 10617 10617 10619 10623 10626 10631 10632 10638 10641 10656 10671 10663 10667 10680 10700 10715 10725 10740 10751
10806 10805 10803 10801 10798 10795 10791 10787 10782 10776 10771 10764 10756 10747 10737 10725 10712 10699 10684 10669 10651 10637 10629 10622 10617 10612 10609 10608 10607 10609 10611 10613 10612 10617 10619 10633 10649 10641 10647 10662 10677 10691 10710 10721 10731
10804 10802 10800 10798 10796 10793 10789 10784 10779 10774 10767 10762 10754 10745 10735 10725 10712 10700 10685 10669 10651 10638 10628 10617 10609 10602 10600 10597 10595 10595 10596 10596 10596 10593 10604 10614 10630 10630 10628 10644 10654 10667 10680 10703 10716
10801 10800 10797 10795 10792 10790 10785 10782 10777 10772 10766 10760 10753 10745 10734 10722 10713 10699 10681 10665 10652 10637 10625 10614 10604 10595 10588 10585 10585 10585 10583 10584 10580 10579 10590 10600 10613 10613 10611 10626 10641 10650 10661 10675 10699
10798 10796 10794 10792 10790 10787 10783 10780 10775 10770 10765 10758 10749 10741 10732 10722 10712 10701 10688 10670 10654 10640 10623 10609 10600 10591 10583 10578 10575 10573 10571 10571 10569 10569 10577 10579 10597 10596 10600 10605 10619 10633 10646 10657 10670
10795 10793 10792 10789 10788 10785 10781 10776 10772 10767 10761 10755 10747 10739 10730 10720 10710 10701 10688 10672 10656 10640 10623 10610 10600 10589 10580 10573 10570 10567 10564 10562 10559 10558 10558 10562 10576 10576 10582 10589 10601 10614 10623 10639 10653
10791 10790 10789 10788 10785 10782 10779 10775 10770 10765 10760 10753 10745 10737 10728 10719 10708 10695 10683 10672 10660 10643 10628 10614 10600 10589 10579 10572 10566 10564 10561 10558 10555 10551 10547 10548 10554 10555 10559 10571 10580 10595 10613 10629 10646
10787 10787 10785 10784 10782 10779 10776 10772 10768 10763 10758 10751 10743 10735 10726 10718 10707 10696 10684 10671 10662 10650 10633 10616 10601 10589 10581 10575 10569 10564 10559 10554 10551 10544 10539 10536 10537 10539 10551 10559 10570 10584 10602 10621 10640
10784 10783 10782 10780 10777 10775 10773 10770 10766 10761 10755 10749 10742 10735 10728 10721 10713 10703 10690 10675 10660 10650 10636 10621 10605 10596 10586 10578 10573 10566 10558 10551 10548 10540 10533 10528 10526 10532 10541 10554 10567 10575 10591 10609 10627
10779 10778 10777 10776 10773 10770 10769 10766 10763 10759 10753 10748 10741 10733 10725 10717 10710 10701 10689 10678 10667 10654 10641 10628 10615 10601 10588 10579 10573 10569 10561 10555 10551 10541 10531 10526 10524 10527 10534 10545 10558 10563 10579 10598 10617
10772 10772 10773 10772 10769 10765 10762 10761 10757 10754 10750 10746 10739 10732 10723 10715 10709 10700 10690 10679 10667 10654 10645 10636 10624 10611 10597 10586 10577 10572 10565 10558 10551 10543 10535 10529 10526 10527 10533 10541 10550 10562 10578 10593 10610
10766 10767 10765 10763 10762 10760 10757 10755 10753 10751 10746 10742 10738 10731 10724 10716 10708 10700 10692 10682 10672 10661 10650 10638 10625 10614 10603 10591 10579 10571 10564 10559 10553 10548 10543 10537 10534 10533 10536 10541 10549 10560 10574 10589 10604
10756 10759 10758 10756 10756 10755 10752 10749 10748 10746 10744 10738 10733 10727 10721 10713 10706 10699 10691 10683 10674 10664 10653 10642 10631 10618 10606 10595 10583 10573 10566 10561 10557 10554 10550 10548 10544 10542 10540 10543 10549 10560 10572 10583 10593
10746 10748 10749 10748 10747 10747 10745 10742 10743 10741 10739 10735 10729 10724 10718 10713 10704 10696 10690 10681 10672 10663 10654 10647 10634 10624 10613 10600 10589 10579 10570 10566 10561 10560 10556 10554 10555 10552 10552 10553 10557 10561 10568 10581 10590
10738 10739 10739 10739 10738 10736 10737 10736 10738 10736 10734 10730 10726 10722 10716 10709 10704 10695 10689 10681 10672 10663 10653 10644 10639 10629 10618 10608 10597 10586 10576 10568 10565 10563 10561 10559 10560 10560 10560 10561 10562 10564 10570 10580 10583
10728 10730 10730 10731 10729 10726 10728 10728 10728 10730 10729 10725 10720 10716 10713 10706 10700 10694 10688 10680 10672 10664 10655 10646 10637 10629 10621 10614 10603 10589 10578 10573 10567 10564 10563 10562 10562 10564 10565 10567 10568 10570 10573 10577 10580
10717 10719 10720 10721 10721 10718 10717 10719 10718 10719 10720 10719 10716 10712 10708 10704 10697 10690 10686 10679 10670 10662 10655 10647 10640 10633 10625 10615 10604 10595 10587 10577 10570 10565 10562 10562 10561 10560 10562 10565 10569 10571 10574 10575 10576
10704 10706 10708 10711 10711 10711 10708 10709 10709 10711 10711 10711 10708 10707 10703 10698 10695 10689 10682 10677 10669 10661 10653 10645 10639 10634 10628 10619 10609 10601 10592 10581 10574 10567 10563 10561 10559 10558 10559 10561 10563 10567 10569 10571 10573
10689 10692 10695 10699 10701 10701 10701 10699 10698 10699 10702 10703 10701 10700 10697 10693 10689 10686 10681 10673 10669 10662 10654 10645 10637 10630 10627 10621 10613 10604 10595 10585 10577 10570 10564 10561 10559 10558 10557 10558 10561 10564 10564 10566 10569
10673 10678 10683 10687 10688 10690 10692 10694 10690 10688 10692 10695 10693 10692 10690 10687 10684 10680 10677 10672 10666 10660 10653 10645 10637 10627 10621 10619 10613 10604 10596 10589 10581 10573 10566 10561 10558 10557 10555 10555 10556 10557 10559 10562 10563